TimeEDT,TemperatureF,Dew PointF,Humidity,Sea Level PressureIn,VisibilityMPH,Wind Direction,Wind SpeedMPH,Gust SpeedMPH,PrecipitationIn,Events,Conditions,WindDirDegrees,DateUTC
12:00 AM,46.4,39.2,76,29.89,25.0,WSW,9.2,-,N/A,,Overcast,250,2012-10-22 04:00:00
1:00 AM,44.6,39.2,81,29.89,25.0,West,8.1,-,N/A,,Mostly Cloudy,270,2012-10-22 05:00:00
2:00 AM,42.8,39.2,87,29.89,25.0,West,8.1,-,N/A,,Scattered Clouds,270,2012-10-22 06:00:00
3:00 AM,42.8,39.2,87,29.91,25.0,West,9.2,-,N/A,,Scattered Clouds,260,2012-10-22 07:00:00
4:00 AM,42.8,39.2,87,29.91,25.0,West,6.9,-,N/A,,Scattered Clouds,260,2012-10-22 08:00:00
5:00 AM,42.8,37.4,81,-9999,25.0,WSW,8.1,-,N/A,,Partly Cloudy,250,2012-10-22 09:00:00
6:00 AM,41.0,37.4,87,29.93,25.0,West,5.8,-,N/A,,Partly Cloudy,270,2012-10-22 10:00:00
7:00 AM,41.0,37.4,87,29.95,25.0,West,8.1,-,N/A,,Scattered Clouds,270,2012-10-22 11:00:00
8:00 AM,44.6,41.0,87,29.96,45.0,WSW,6.9,-,N/A,,Mostly Cloudy,250,2012-10-22 12:00:00
9:00 AM,46.4,41.0,81,29.98,45.0,WSW,9.2,-,N/A,,Mostly Cloudy,240,2012-10-22 13:00:00
10:00 AM,46.4,42.8,87,29.99,45.0,WSW,8.1,-,N/A,,Mostly Cloudy,250,2012-10-22 14:00:00
11:00 AM,50.0,42.8,76,29.98,45.0,West,12.7,19.6,N/A,,Partly Cloudy,260,2012-10-22 15:00:00
12:00 PM,55.4,41.0,58,29.99,45.0,West,11.5,17.3,N/A,,Partly Cloudy,260,2012-10-22 16:00:00
1:00 PM,55.4,41.0,58,29.99,45.0,NNW,15.0,-,N/A,,Partly Cloudy,330,2012-10-22 17:00:00
2:00 PM,59.0,41.0,51,29.97,45.0,West,9.2,-,N/A,,Scattered Clouds,270,2012-10-22 18:00:00
3:00 PM,59.0,42.8,55,29.98,45.0,WSW,9.2,-,N/A,,Mostly Cloudy,250,2012-10-22 19:00:00
4:00 PM,57.2,41.0,55,29.98,45.0,WSW,10.4,19.6,N/A,,Mostly Cloudy,250,2012-10-22 20:00:00
5:00 PM,59.0,41.0,51,29.99,45.0,WNW,5.8,18.4,N/A,,Partly Cloudy,300,2012-10-22 21:00:00
6:00 PM,53.6,39.2,58,30.00,45.0,WSW,3.5,-,N/A,,Partly Cloudy,250,2012-10-22 22:00:00
7:00 PM,51.8,42.8,71,30.02,25.0,WSW,6.9,-,N/A,,Partly Cloudy,240,2012-10-22 23:00:00
8:00 PM,50.0,42.8,76,30.03,25.0,WSW,4.6,-,N/A,,Partly Cloudy,250,2012-10-23 00:00:00
9:00 PM,46.4,42.8,87,30.05,25.0,WSW,4.6,-,N/A,,Clear,250,2012-10-23 01:00:00
10:00 PM,46.4,42.8,87,30.07,25.0,West,6.9,-,N/A,,Partly Cloudy,270,2012-10-23 02:00:00
11:00 PM,46.4,41.0,81,30.07,25.0,West,5.8,-,N/A,,Partly Cloudy,260,2012-10-23 03:00:00